220  
ASUS44 KLCH 210210  
RWRLCH  
REGIONAL WEATHER ROUNDUP  
NATIONAL WEATHER SERVICE LAKE CHARLES LA  
800 PM CST MON NOV 20 2017  
 
NOTE: "FAIR" INDICATES FEW OR NO CLOUDS BELOW 12,000 FEET WITH NO  
SIGNIFICANT WEATHER AND/OR S TO VISIBILITY
.  
 
ACROSS SOUTHEAST TEXAS  
 
CITY SKY/WX TMP DP RH WIND PRES REMARKS
 
BEAUMONT CLEAR 48 41 76 NE3 30.08F  
BEAUMONT CITY FAIR 50 41 72 E3 30.08F  
ORANGE CLEAR 48 41 76 CALM 30.11F  
JASPER CLEAR 48 42 77 CALM 30.10F  

 
 
ACROSS CENTRAL LOUISIANA  
 
CITY SKY/WX TMP DP RH WIND PRES REMARKS
 
LEESVILLE MOCLDY 45 38 77 CALM 30.08F  
FULLERTON FAIR 42 38 85 CALM 30.07F  
ALEXANDRIA INT CLEAR 46 36 68 SE5 30.09F  
ESLER FIELD CLEAR 38 36 92 CALM 30.10F  
DERIDDER FAIR 44 37 79 CALM 30.11F  
OAKDALE CLEAR 38 37 94 CALM 30.11F  
OPELOUSAS FAIR 47 43 85 CALM 30.11F  

 
 
ACROSS SOUTHWEST AND SOUTH CENTRAL LOUISIANA  
 
CITY SKY/WX TMP DP RH WIND PRES REMARKS
 
SULPHUR CLEAR 48 39 71 E5 30.10F  
LAKE CHARLES CLEAR 48 41 76 CALM 30.10F  
CHENNAULT INT CLEAR 43 36 75 E6 30.11F  
CAMERON PHI CLEAR 52 43 71 NE6 30.10F  
DEQUINCY FAIR 42 38 84 CALM 30.10F  
JENNINGS FAIR 51 39 64 CALM 30.11F  
LAFAYETTE PTCLDY 52 49 89 CALM 30.12S  
NEW IBERIA MOCLDY 50 42 74 CALM 30.13S  
ABBEVILLE FAIR 47 46 99 MISG 30.12F  
PATTERSON CLOUDY 52 49 89 CALM 30.13S  
SALT POINT N/A 1 32 100 CALM 30.11S  

 
 
SELECTED SITES ACROSS THE REGION  
 
CITY SKY/WX TMP DP RH WIND PRES REMARKS
 
HOUSTON BUSH PTCLDY 56 48 74 SE8 30.06F  
HOUSTON HOBBY PTCLDY 57 51 80 CALM 30.06F  
GALVESTON CLEAR 64 54 69 E8 30.07F  
COLLEGE STAT CLEAR 57 47 69 S7 30.02F  
CONROE CLEAR 54 48 80 SE8 30.05F  
HUNTSVILLE CLEAR 58 45 62 VRB5 30.04S  
LUFKIN CLEAR 48 40 73 SE6 30.06F  
SHREVEPORT CLEAR 47 35 63 S6 30.04F  
MONROE CLEAR 40 33 76 SE3 30.10F  
NATCHEZ MS CLOUDY 41 38 89 CALM 30.13S  
BATON ROUGE MOCLDY 50 43 77 NE3 30.13R  
N.O. INTL ARPT MOCLDY 53 47 79 E8 30.14S  
SLIDELL PTCLDY 46 43 89 CALM 30.14S  

 
 
MARINE REPORTS  
 
STATION/POSITION TIME SKY/WX TEMP WIND PRES VSBY
 
AIR SEA DIR/SP/G  
(UTC) (F) (DEG/KT/KT) (MB) (MI)  
BUOY 30 S HIGH I 0050 64 70 120/ 10/ 14 1018.3  
WVE H/P(F/S)= 2/ 5  
 
SEA RIM ST PARK 0200 52 60/ 7/ 7 1019.0F  
PORT ARTHUR 0142 56 67 80/ 4/ 8 1019.0S  
SABINE PASS N 0142 54 68 50/ 5/ 8 1020.4R  
TEXAS POINT NOT AVBL  
CALCASIEU PASS 0142 53 65 80/ 7/ 7 1017.8F  
LK CHARLES BEACH 0142 51 69 1018.9F  
MARSH ISLAND 0100 57 N/A  
FRESH WATER LOCK 0142 54 66 20/ 4/ 4 1019.7F  
AMERADA PASS 0142 55 60 CALM / 2 1019.8S  

 
 
 
CLICK HERE TO GO TO PREVIOUS BULLETINS.

The Nexlab LA Page
The Nexlab TX Page Main Text Page